Location: Champseau
(45.8333°N, 1.7667°E)
Time: 16:34:07
(UTC+00:00)

Cosmos 1655 Rocket - Pass Details

Date: 18 April 2021
Orbit: 970 x 1007 km, 82.9° (Epoch: 11 May)

Event Time Altitude Azimuth Distance (km) Brightness Sun altitude
Rises 20:25:54 0° 354° (N) 3,710 7.7 -16.6°
Reaches altitude 10° 20:28:31 10° 359° (N) 2,752 6.9 -17.0°
Maximum altitude 20:34:41 55° 77° (ENE) 1,168 4.2 -17.9°
Enters shadow 20:37:47 29° 141° (SE) 1,707 4.7 -18.3°
